^^

..:: Storico WU ::..




Lo storico viene creato da WUnderground con i dati che la stazione Meteomincio invia al loro server. L' aggiornamento viene fatto ogni 5 minuti circa, tuttavia possono esserci intervalli pił ampi a causa di errori, interruzioni di servizio o problemi nell' invio tramite FTP.


Storico stazione MeteoMincio
Giorno Sommario per Giugno 09, 2022 Unità:  Inglese    Metrico   Entrambi
Giorno Settimana Mese Anno
  Max: Min: Media:
Temperatura: 78.8 °F 62.6 °F 69.3 °F
Dew Point: 64.4 °F 59 °F 61.7 °F
Umidità: 94% 55% 79%
Velocità vento: 17.4mph 0mph 3.1mph
Raffica: 31.1mph - -
Direzione- - SSW
Pressione: 29.9 in 29.7 in -
Precipitazioni: 0.57 in    
 
 
Tabulato Dati per Giugno 09, 2022
Ora Temperatura Dew Point Pressione Direzione Velocità vento Raffica Umidità Intensità pioggia (oraria) Info solare Situazione
00:04 64.4 °F 62.6 °F 29.7 in ENE 1.9 mph 3.1 mph 93% 0 in 0.00 W/m2 unknown
00:09 64.4 °F 62.6 °F 29.7 in ENE 1.9 mph 3.7 mph 94% 0 in 0.00 W/m2 unknown
00:14 64.4 °F 62.6 °F 29.7 in NNE 1.9 mph 3.7 mph 94% 0 in 0.00 W/m2 unknown
00:19 64.4 °F 62.6 °F 29.7 in ENE 1.9 mph 3.7 mph 94% 0 in 0.00 W/m2 unknown
00:24 64.4 °F 62.6 °F 29.7 in SE 1.9 mph 3.7 mph 94% 0 in 0.00 W/m2 unknown
00:29 64.4 °F 62.6 °F 29.7 in SE 1.9 mph 5 mph 94% 0 in 0.00 W/m2 unknown
00:34 64.4 °F 62.6 °F 29.7 in ESE 3.1 mph 5 mph 94% 0 in 0.00 W/m2 unknown
00:38 64.4 °F 62.6 °F 29.7 in SE 3.7 mph 5 mph 94% 0 in 0.00 W/m2 unknown
00:44 64.4 °F 62.6 °F 29.7 in SSE 3.7 mph 4.3 mph 94% 0 in 0.00 W/m2 unknown
00:49 64.4 °F 62.6 °F 29.7 in ESE 3.1 mph 5 mph 94% 0 in 0.00 W/m2 unknown
00:54 64.4 °F 62.6 °F 29.7 in ESE 2.5 mph 3.7 mph 94% 0 in 0.00 W/m2 unknown
00:58 64.4 °F 62.6 °F 29.7 in East 1.9 mph 3.7 mph 94% 0 in 0.00 W/m2 unknown
01:04 64.4 °F 62.6 °F 29.7 in NE 1.9 mph 3.7 mph 94% 0 in 0.00 W/m2 unknown
01:09 64.4 °F 62.6 °F 29.7 in NNE 1.9 mph 3.7 mph 94% 0 in 0.00 W/m2 unknown
01:14 64.4 °F 62.6 °F 29.7 in NNE 1.2 mph 3.1 mph 94% 0 in 0.00 W/m2 unknown
01:19 64.4 °F 62.6 °F 29.7 in NNE 1.2 mph 1.2 mph 94% 0 in 0.00 W/m2 unknown
01:24 64.4 °F 62.6 °F 29.7 in Calm   1.2 mph 94% 0 in 0.00 W/m2 unknown
01:29 64.4 °F 62.6 °F 29.7 in Calm   1.9 mph 94% 0 in 0.00 W/m2 unknown
01:34 64.4 °F 62.6 °F 29.7 in North 0.6 mph 2.5 mph 94% 0 in 0.00 W/m2 unknown
01:39 64.4 °F 62.6 °F 29.7 in North 0.6 mph 2.5 mph 94% 0 in 0.00 W/m2 unknown
01:43 64.4 °F 62.6 °F 29.7 in North 1.9 mph 3.1 mph 94% 0 in 0.00 W/m2 unknown
01:49 64.4 °F 62.6 °F 29.7 in North 3.1 mph 3.7 mph 94% 0 in 0.00 W/m2 unknown
01:54 64.4 °F 62.6 °F 29.7 in NNE 3.1 mph 3.7 mph 94% 0.01 in 0.00 W/m2 unknown
01:59 64.4 °F 62.6 °F 29.7 in NNE 1.9 mph 3.7 mph 94% 0.01 in 0.00 W/m2 unknown
02:04 64.4 °F 62.6 °F 29.7 in NNE 1.9 mph 3.7 mph 94% 0.01 in 0.00 W/m2 unknown
02:09 64.4 °F 62.6 °F 29.7 in NNE 1.9 mph 3.7 mph 94% 0.01 in 0.00 W/m2 unknown
02:14 64.4 °F 62.6 °F 29.7 in NE 1.9 mph 3.7 mph 94% 0.01 in 0.00 W/m2 unknown
02:19 64.4 °F 62.6 °F 29.7 in ENE 2.5 mph 3.7 mph 94% 0.01 in 0.00 W/m2 unknown
02:24 64.4 °F 62.6 °F 29.7 in ENE 2.5 mph 3.7 mph 94% 0.01 in 0.00 W/m2 unknown
02:29 64.4 °F 62.6 °F 29.7 in ENE 2.5 mph 3.7 mph 94% 0.01 in 0.00 W/m2 unknown
02:34 64.4 °F 62.6 °F 29.7 in ENE 1.9 mph 3.7 mph 94% 0.01 in 0.00 W/m2 unknown
02:39 64.4 °F 62.6 °F 29.7 in NNE 1.2 mph 3.7 mph 94% 0.01 in 0.00 W/m2 unknown
02:44 64.4 °F 62.6 °F 29.7 in North 1.9 mph 3.7 mph 94% 0.01 in 0.00 W/m2 unknown
02:49 64.4 °F 62.6 °F 29.7 in NNE 1.2 mph 3.7 mph 94% 0.06 in 0.00 W/m2 unknown
02:54 64.4 °F 62.6 °F 29.7 in ENE 2.5 mph 3.7 mph 94% 0.15 in 0.00 W/m2 unknown
02:59 64.4 °F 62.6 °F 29.7 in ENE 3.1 mph 6.8 mph 94% 0.26 in 0.00 W/m2 unknown
03:04 64.4 °F 62.6 °F 29.7 in ENE 5.6 mph 8.1 mph 94% 0.35 in 0.00 W/m2 unknown
03:09 64.4 °F 62.6 °F 29.7 in ENE 5.6 mph 8.1 mph 94% 0.42 in 0.00 W/m2 unknown
03:13 64.4 °F 62.6 °F 29.7 in ENE 3.7 mph 5.6 mph 93% 0.45 in 0.00 W/m2 unknown
03:18 64.4 °F 62.6 °F 29.7 in NE 3.7 mph 5 mph 93% 0.45 in 0.00 W/m2 unknown
03:24 64.4 °F 62.6 °F 29.7 in NE 3.7 mph 6.2 mph 93% 0.47 in 0.00 W/m2 unknown
03:29 64.4 °F 62.6 °F 29.7 in NE 4.3 mph 6.2 mph 93% 0.47 in 0.00 W/m2 unknown
03:34 64.4 °F 60.8 °F 29.7 in NE 4.3 mph 6.2 mph 92% 0.47 in 0.00 W/m2 unknown
03:39 64.4 °F 60.8 °F 29.7 in NE 5 mph 6.2 mph 92% 0.47 in 0.00 W/m2 unknown
03:44 64.4 °F 60.8 °F 29.7 in ENE 3.1 mph 6.2 mph 92% 0.47 in 0.00 W/m2 unknown
03:48 64.4 °F 60.8 °F 29.7 in ENE 1.9 mph 3.7 mph 92% 0.47 in 0.00 W/m2 unknown
03:54 64.4 °F 60.8 °F 29.7 in ENE 1.9 mph 3.7 mph 92% 0.47 in 0.00 W/m2 unknown
03:59 64.4 °F 60.8 °F 29.7 in ENE 1.9 mph 2.5 mph 92% 0.47 in 0.00 W/m2 unknown
04:03 64.4 °F 60.8 °F 29.7 in NE 1.2 mph 2.5 mph 92% 0.47 in 0.00 W/m2 unknown
04:08 64.4 °F 60.8 °F 29.7 in East 1.9 mph 3.1 mph 92% 0.47 in 0.00 W/m2 unknown
04:14 64.4 °F 60.8 °F 29.7 in East 2.5 mph 3.7 mph 92% 0.47 in 0.00 W/m2 unknown
04:18 62.6 °F 60.8 °F 29.7 in East 1.2 mph 3.1 mph 92% 0.47 in 0.00 W/m2 unknown
04:24 64.4 °F 60.8 °F 29.7 in East 0.6 mph 2.5 mph 93% 0.47 in 0.00 W/m2 unknown
04:28 64.4 °F 60.8 °F 29.7 in ESE 1.2 mph 2.5 mph 93% 0.47 in 0.00 W/m2 unknown
04:33 62.6 °F 60.8 °F 29.7 in SSE 1.9 mph 3.1 mph 93% 0.44 in 0.00 W/m2 unknown
04:39 62.6 °F 60.8 °F 29.7 in East 1.9 mph 3.7 mph 93% 0.39 in 0.00 W/m2 unknown
04:43 62.6 °F 60.8 °F 29.7 in ESE 1.2 mph 3.1 mph 93% 0.32 in 0.00 W/m2 unknown
04:49 62.6 °F 60.8 °F 29.7 in SSE 1.2 mph 2.5 mph 93% 0.3 in 0.00 W/m2 unknown
04:53 62.6 °F 60.8 °F 29.7 in SSE 1.2 mph 3.1 mph 93% 0.21 in 0.00 W/m2 unknown
04:57 62.6 °F 60.8 °F 29.7 in ESE 1.2 mph 3.7 mph 93% 0.19 in 0.00 W/m2 unknown
05:03 62.6 °F 60.8 °F 29.7 in ESE 1.2 mph 2.5 mph 93% 0.1 in 0.00 W/m2 unknown
05:09 62.6 °F 60.8 °F 29.7 in SSE 0.6 mph 2.5 mph 93% 0.06 in 0.00 W/m2 unknown
05:14 62.6 °F 60.8 °F 29.7 in SSW 0.6 mph 3.1 mph 93% 0.02 in 0.00 W/m2 unknown
05:19 62.6 °F 60.8 °F 29.7 in SSW 0.6 mph 2.5 mph 93% 0 in 0.00 W/m2 unknown
05:23 62.6 °F 60.8 °F 29.7 in Calm   2.5 mph 93% 0 in 0.00 W/m2 unknown
05:28 64.4 °F 60.8 °F 29.7 in Calm   1.9 mph 93% 0 in 0.00 W/m2 unknown
05:34 64.4 °F 60.8 °F 29.7 in Calm   1.2 mph 93% 0 in 0.00 W/m2 unknown
05:39 62.6 °F 60.8 °F 29.7 in Calm     93% 0 in 0.00 W/m2 unknown
05:44 62.6 °F 60.8 °F 29.7 in Calm     93% 0 in 0.00 W/m2 unknown
05:49 62.6 °F 60.8 °F 29.7 in Calm     93% 0 in 5.00 W/m2 unknown
05:54 62.6 °F 60.8 °F 29.7 in NNW 0.6 mph 3.7 mph 93% 0 in 5.00 W/m2 unknown
05:59 62.6 °F 60.8 °F 29.7 in NNW 1.2 mph 3.7 mph 93% 0 in 7.00 W/m2 unknown
06:03 62.6 °F 60.8 °F 29.7 in NNW 1.2 mph 3.1 mph 93% 0 in 7.00 W/m2 unknown
06:09 62.6 °F 60.8 °F 29.7 in NNW 1.2 mph 2.5 mph 94% 0 in 16.00 W/m2 unknown
06:14 62.6 °F 60.8 °F 29.7 in NNW 1.2 mph 2.5 mph 94% 0 in 18.00 W/m2 unknown
06:19 62.6 °F 60.8 °F 29.7 in NNW 1.2 mph 2.5 mph 94% 0 in 23.00 W/m2 unknown
06:23 62.6 °F 60.8 °F 29.7 in WNW 0.6 mph 1.9 mph 94% 0 in 39.00 W/m2 unknown
06:29 62.6 °F 60.8 °F 29.7 in WNW 1.2 mph 2.5 mph 94% 0 in 62.00 W/m2 unknown
06:34 62.6 °F 60.8 °F 29.7 in West 1.2 mph 2.5 mph 94% 0 in 77.00 W/m2 unknown
06:39 64.4 °F 62.6 °F 29.7 in WNW 1.9 mph 3.7 mph 94% 0 in 104.00 W/m2 unknown
06:44 64.4 °F 62.6 °F 29.7 in WNW 1.9 mph 3.7 mph 94% 0 in 127.00 W/m2 unknown
06:49 64.4 °F 62.6 °F 29.7 in NW 1.9 mph 3.7 mph 93% 0 in 139.00 W/m2 unknown
06:54 66.2 °F 62.6 °F 29.7 in NW 1.2 mph 2.5 mph 92% 0 in 141.00 W/m2 unknown
06:59 66.2 °F 62.6 °F 29.7 in WNW 1.2 mph 2.5 mph 91% 0 in 156.00 W/m2 unknown
07:04 66.2 °F 62.6 °F 29.7 in NW 1.2 mph 3.1 mph 90% 0 in 171.00 W/m2 unknown
07:09 66.2 °F 62.6 °F 29.7 in WNW 1.9 mph 3.7 mph 89% 0 in 192.00 W/m2 unknown
07:14 66.2 °F 62.6 °F 29.7 in WNW 2.5 mph 3.7 mph 89% 0 in 200.00 W/m2 unknown
07:19 66.2 °F 62.6 °F 29.7 in WNW 2.5 mph 3.7 mph 88% 0 in 204.00 W/m2 unknown
07:24 66.2 °F 62.6 °F 29.7 in WNW 1.9 mph 3.7 mph 88% 0 in 204.00 W/m2 unknown
07:29 66.2 °F 62.6 °F 29.7 in West 1.9 mph 3.7 mph 88% 0 in 211.00 W/m2 unknown
07:34 68 °F 62.6 °F 29.7 in WNW 1.2 mph 3.1 mph 87% 0 in 221.00 W/m2 unknown
07:39 68 °F 64.4 °F 29.7 in NW 1.2 mph 2.5 mph 87% 0 in 230.00 W/m2 unknown
07:44 68 °F 64.4 °F 29.7 in Calm   1.2 mph 87% 0 in 248.00 W/m2 unknown
07:49 68 °F 62.6 °F 29.7 in Calm   1.2 mph 86% 0 in 260.00 W/m2 unknown
07:54 68 °F 62.6 °F 29.7 in NNE 0.6 mph 1.2 mph 86% 0 in 271.00 W/m2 unknown
07:59 68 °F 62.6 °F 29.7 in NNE 0.6 mph 1.2 mph 84% 0 in 287.00 W/m2 unknown
08:04 68 °F 62.6 °F 29.7 in WSW 2.5 mph 3.7 mph 84% 0 in 299.00 W/m2 unknown
08:09 68 °F 62.6 °F 29.7 in SW 2.5 mph 3.7 mph 83% 0 in 313.00 W/m2 unknown
08:14 69.8 °F 62.6 °F 29.7 in SW 1.9 mph 3.7 mph 82% 0 in 323.00 W/m2 unknown
08:19 69.8 °F 62.6 °F 29.7 in WSW 1.2 mph 3.1 mph 82% 0 in 338.00 W/m2 unknown
08:23 69.8 °F 64.4 °F 29.7 in SSE 1.2 mph 3.7 mph 81% 0 in 352.00 W/m2 unknown
08:29 69.8 °F 64.4 °F 29.7 in SW 1.9 mph 3.7 mph 82% 0 in 369.00 W/m2 unknown
08:34 69.8 °F 64.4 °F 29.7 in SW 3.1 mph 3.7 mph 81% 0 in 381.00 W/m2 unknown
08:39 69.8 °F 62.6 °F 29.7 in SW 3.1 mph 3.7 mph 80% 0 in 394.00 W/m2 unknown
08:44 69.8 °F 64.4 °F 29.7 in West 2.5 mph 3.7 mph 81% 0 in 413.00 W/m2 unknown
08:49 69.8 °F 64.4 °F 29.7 in WSW 3.1 mph 5 mph 81% 0 in 424.00 W/m2 unknown
08:54 69.8 °F 64.4 °F 29.7 in WSW 3.1 mph 5 mph 80% 0 in 439.00 W/m2 unknown
08:59 69.8 °F 62.6 °F 29.7 in West 3.1 mph 5 mph 79% 0 in 457.00 W/m2 unknown
09:04 69.8 °F 62.6 °F 29.7 in SW 4.3 mph 6.2 mph 78% 0 in 475.00 W/m2 unknown
09:09 69.8 °F 62.6 °F 29.7 in WSW 3.1 mph 6.2 mph 79% 0 in 490.00 W/m2 unknown
09:14 69.8 °F 62.6 °F 29.7 in West 3.1 mph 6.2 mph 79% 0 in 503.00 W/m2 unknown
09:19 69.8 °F 62.6 °F 29.7 in West 2.5 mph 5 mph 78% 0 in 513.00 W/m2 unknown
09:24 69.8 °F 62.6 °F 29.7 in SW 1.9 mph 3.7 mph 77% 0 in 527.00 W/m2 unknown
09:29 71.6 °F 64.4 °F 29.7 in SW 1.9 mph 3.7 mph 77% 0 in 575.00 W/m2 unknown
09:34 71.6 °F 64.4 °F 29.7 in NW 1.2 mph 1.9 mph 76% 0 in 577.00 W/m2 unknown
09:39 71.6 °F 64.4 °F 29.7 in West 1.2 mph 3.7 mph 77% 0 in 598.00 W/m2 unknown
09:44 71.6 °F 62.6 °F 29.7 in WSW 2.5 mph 5 mph 74% 0 in 661.00 W/m2 unknown
09:49 71.6 °F 62.6 °F 29.7 in WSW 1.9 mph 5 mph 74% 0 in 703.00 W/m2 unknown
09:54 71.6 °F 62.6 °F 29.8 in SSW 1.9 mph 3.7 mph 74% 0 in 763.00 W/m2 unknown
09:59 71.6 °F 62.6 °F 29.8 in North 1.9 mph 3.7 mph 74% 0 in 373.00 W/m2 unknown
10:04 71.6 °F 62.6 °F 29.8 in WSW 1.9 mph 3.7 mph 72% 0 in 705.00 W/m2 unknown
10:09 71.6 °F 62.6 °F 29.8 in WSW 2.5 mph 3.7 mph 73% 0 in 705.00 W/m2 unknown
10:14 71.6 °F 62.6 °F 29.8 in WNW 2.5 mph 3.7 mph 73% 0 in 696.00 W/m2 unknown
10:19 73.4 °F 62.6 °F 29.8 in WSW 1.9 mph 5 mph 71% 0 in 691.00 W/m2 unknown
10:24 73.4 °F 62.6 °F 29.8 in WSW 3.1 mph 5 mph 70% 0 in 694.00 W/m2 unknown
10:29 73.4 °F 62.6 °F 29.7 in West 1.9 mph 5 mph 71% 0 in 708.00 W/m2 unknown
10:34 73.4 °F 62.6 °F 29.7 in SSW 3.7 mph 5 mph 69% 0 in 722.00 W/m2 unknown
10:39 73.4 °F 62.6 °F 29.7 in SW 4.3 mph 5 mph 69% 0 in 742.00 W/m2 unknown
10:44 73.4 °F 62.6 °F 29.7 in WSW 5 mph 6.8 mph 71% 0 in 742.00 W/m2 unknown
10:49 73.4 °F 62.6 °F 29.7 in SW 5 mph 6.8 mph 70% 0 in 733.00 W/m2 unknown
10:54 73.4 °F 62.6 °F 29.7 in SSW 5 mph 6.8 mph 68% 0 in 742.00 W/m2 unknown
10:59 73.4 °F 62.6 °F 29.7 in SW 3.7 mph 6.2 mph 70% 0 in 742.00 W/m2 unknown
11:04 73.4 °F 62.6 °F 29.7 in WSW 3.7 mph 6.8 mph 68% 0 in 740.00 W/m2 unknown
11:09 73.4 °F 62.6 °F 29.7 in SE 2.5 mph 6.2 mph 70% 0 in 772.00 W/m2 unknown
11:14 75.2 °F 62.6 °F 29.7 in SSW 3.1 mph 6.8 mph 69% 0 in 789.00 W/m2 unknown
11:19 75.2 °F 64.4 °F 29.7 in SSW 5 mph 6.8 mph 68% 0 in 881.00 W/m2 unknown
11:24 75.2 °F 62.6 °F 29.7 in SSW 5 mph 6.8 mph 66% 0 in 881.00 W/m2 unknown
11:29 75.2 °F 62.6 °F 29.8 in SW 5 mph 6.8 mph 66% 0 in 555.00 W/m2 unknown
11:34 75.2 °F 62.6 °F 29.8 in West 4.3 mph 6.8 mph 67% 0 in 909.00 W/m2 unknown
11:39 75.2 °F 62.6 °F 29.8 in NW 5 mph 6.8 mph 65% 0 in 932.00 W/m2 unknown
11:44 75.2 °F 62.6 °F 29.8 in West 3.1 mph 6.2 mph 64% 0 in 932.00 W/m2 unknown
11:49 75.2 °F 60.8 °F 29.8 in NW 3.1 mph 3.7 mph 64% 0 in 896.00 W/m2 unknown
11:54 75.2 °F 62.6 °F 29.8 in WNW 3.1 mph 3.7 mph 65% 0 in 905.00 W/m2 unknown
11:59 75.2 °F 62.6 °F 29.8 in WNW 3.1 mph 5 mph 64% 0 in 874.00 W/m2 unknown
12:04 75.2 °F 60.8 °F 29.7 in SW 3.7 mph 6.2 mph 61% 0 in 874.00 W/m2 unknown
12:09 75.2 °F 60.8 °F 29.7 in West 3.7 mph 6.8 mph 61% 0 in 874.00 W/m2 unknown
12:14 77 °F 60.8 °F 29.7 in NNW 3.1 mph 6.8 mph 61% 0 in 877.00 W/m2 unknown
12:19 77 °F 60.8 °F 29.7 in NNW 3.1 mph 6.8 mph 59% 0 in 912.00 W/m2 unknown
12:24 77 °F 62.6 °F 29.7 in West 1.9 mph 3.7 mph 62% 0 in 947.00 W/m2 unknown
12:29 77 °F 60.8 °F 29.7 in ENE 4.3 mph 6.8 mph 59% 0 in 965.00 W/m2 unknown
12:34 77 °F 60.8 °F 29.7 in ESE 4.3 mph 6.8 mph 58% 0 in 947.00 W/m2 unknown
12:39 77 °F 60.8 °F 29.7 in South 5 mph 6.8 mph 60% 0 in 972.00 W/m2 unknown
12:44 77 °F 62.6 °F 29.7 in WNW 2.5 mph 3.7 mph 61% 0 in 1014.00 W/m2 unknown
12:49 77 °F 62.6 °F 29.7 in WNW 3.7 mph 6.8 mph 60% 0 in 963.00 W/m2 unknown
12:54 77 °F 64.4 °F 29.7 in WNW 4.3 mph 6.8 mph 64% 0 in 963.00 W/m2 unknown
12:59 77 °F 64.4 °F 29.7 in North 3.1 mph 6.8 mph 64% 0 in 933.00 W/m2 unknown
13:04 77 °F 62.6 °F 29.7 in NNW 3.1 mph 6.2 mph 61% 0 in 944.00 W/m2 unknown
13:09 77 °F 62.6 °F 29.7 in North 2.5 mph 6.2 mph 61% 0 in 972.00 W/m2 unknown
13:14 77 °F 62.6 °F 29.7 in WSW 3.1 mph 6.2 mph 61% 0 in 1020.00 W/m2 unknown
13:19 77 °F 62.6 °F 29.7 in WSW 3.7 mph 6.2 mph 60% 0 in 1014.00 W/m2 unknown
13:24 77 °F 60.8 °F 29.7 in West 3.1 mph 5 mph 59% 0 in 951.00 W/m2 unknown
13:29 78.8 °F 62.6 °F 29.7 in WNW 3.7 mph 6.8 mph 62% 0 in 962.00 W/m2 unknown
13:34 78.8 °F 62.6 °F 29.7 in WNW 3.7 mph 6.8 mph 59% 0 in 974.00 W/m2 unknown
13:39 78.8 °F 64.4 °F 29.7 in West 2.5 mph 6.8 mph 60% 0 in 972.00 W/m2 unknown
13:44 78.8 °F 62.6 °F 29.7 in WSW 5 mph 6.8 mph 59% 0 in 1002.00 W/m2 unknown
13:49 78.8 °F 62.6 °F 29.7 in West 5 mph 6.8 mph 58% 0 in 1099.00 W/m2 unknown
13:54 78.8 °F 62.6 °F 29.7 in SSW 5 mph 6.8 mph 58% 0 in 1099.00 W/m2 unknown
13:59 78.8 °F 64.4 °F 29.7 in SSW 3.7 mph 6.2 mph 60% 0 in 1037.00 W/m2 unknown
14:04 78.8 °F 62.6 °F 29.7 in SW 5 mph 6.8 mph 57% 0 in 1044.00 W/m2 unknown
14:09 78.8 °F 60.8 °F 29.7 in WSW 5.6 mph 6.8 mph 55% 0 in 1058.00 W/m2 unknown
14:14 78.8 °F 60.8 °F 29.7 in SW 5 mph 6.8 mph 55% 0 in 1144.00 W/m2 unknown
14:19 78.8 °F 62.6 °F 29.7 in SW 4.3 mph 9.3 mph 58% 0 in 1144.00 W/m2 unknown
14:24 78.8 °F 62.6 °F 29.7 in NW 4.3 mph 9.3 mph 58% 0 in 294.00 W/m2 unknown
14:26 77 °F 60.8 °F 29.7 in NNW 5 mph 8.7 mph 58% 0 in 151.00 W/m2 unknown
14:34 77 °F 62.6 °F 29.7 in NW 5 mph 9.9 mph 60% 0 in 151.00 W/m2 unknown
14:39 77 °F 62.6 °F 29.7 in NW 6.8 mph 10.6 mph 60% 0 in 127.00 W/m2 unknown
14:44 77 °F 60.8 °F 29.7 in NW 6.8 mph 10.6 mph 60% 0 in 169.00 W/m2 unknown
14:49 77 °F 62.6 °F 29.7 in WNW 6.2 mph 9.9 mph 61% 0 in 192.00 W/m2 unknown
14:54 77 °F 62.6 °F 29.7 in West 2.5 mph 6.8 mph 62% 0 in 200.00 W/m2 unknown
14:59 77 °F 62.6 °F 29.7 in WSW 2.5 mph 3.7 mph 61% 0 in 230.00 W/m2 unknown
15:04 77 °F 62.6 °F 29.7 in West 1.9 mph 3.7 mph 61% 0 in 232.00 W/m2 unknown
15:09 75.2 °F 60.8 °F 29.7 in WSW 2.5 mph 3.7 mph 61% 0 in 230.00 W/m2 unknown
15:14 75.2 °F 60.8 °F 29.7 in WSW 2.5 mph 3.7 mph 61% 0 in 197.00 W/m2 unknown
15:19 75.2 °F 60.8 °F 29.7 in WSW 2.5 mph 3.7 mph 61% 0 in 155.00 W/m2 unknown
15:24 75.2 °F 60.8 °F 29.7 in WSW 2.5 mph 3.7 mph 61% 0 in 142.00 W/m2 unknown
15:29 75.2 °F 62.6 °F 29.7 in South 3.1 mph 5 mph 66% 0 in 137.00 W/m2 unknown
15:34 75.2 °F 64.4 °F 29.7 in SE 3.1 mph 5 mph 73% 0 in 120.00 W/m2 unknown
15:39 75.2 °F 64.4 °F 29.7 in ESE 4.3 mph 8.1 mph 75% 0 in 91.00 W/m2 unknown
15:44 73.4 °F 64.4 °F 29.8 in ENE 15.5 mph 31.1 mph 75% 0.01 in 65.00 W/m2 unknown
15:49 69.8 °F 60.8 °F 29.8 in SSE 17.4 mph 31.1 mph 79% 0.02 in 76.00 W/m2 unknown
15:53 66.2 °F 59 °F 29.8 in SSW 14.9 mph 31.1 mph 82% 0.02 in 120.00 W/m2 unknown
15:59 66.2 °F 59 °F 29.7 in SSW 8.7 mph 16.2 mph 83% 0.02 in 158.00 W/m2 unknown
16:04 66.2 °F 60.8 °F 29.7 in SSW 5 mph 11.8 mph 83% 0.02 in 156.00 W/m2 unknown
16:09 66.2 °F 60.8 °F 29.7 in SSW 3.7 mph 5 mph 85% 0.02 in 156.00 W/m2 unknown
16:14 66.2 °F 60.8 °F 29.7 in South 3.7 mph 6.2 mph 85% 0.02 in 209.00 W/m2 unknown
16:19 66.2 °F 60.8 °F 29.7 in South 3.7 mph 6.2 mph 85% 0.02 in 209.00 W/m2 unknown
16:24 68 °F 62.6 °F 29.7 in SSE 4.3 mph 6.2 mph 83% 0.02 in 169.00 W/m2 unknown
16:29 68 °F 62.6 °F 29.8 in SE 3.7 mph 8.1 mph 86% 0.02 in 211.00 W/m2 unknown
16:34 68 °F 62.6 °F 29.8 in SSE 4.3 mph 9.3 mph 85% 0.02 in 278.00 W/m2 unknown
16:39 68 °F 62.6 °F 29.8 in SSE 5 mph 9.3 mph 83% 0.02 in 278.00 W/m2 unknown
16:44 68 °F 62.6 °F 29.8 in South 5 mph 9.3 mph 81% 0.03 in 169.00 W/m2 unknown
16:49 68 °F 62.6 °F 29.8 in SE 5 mph 8.7 mph 81% 0.03 in 174.00 W/m2 unknown
16:54 69.8 °F 62.6 °F 29.8 in SSE 5 mph 8.1 mph 82% 0.03 in 239.00 W/m2 unknown
16:59 69.8 °F 62.6 °F 29.8 in SSE 5 mph 8.1 mph 81% 0.03 in 239.00 W/m2 unknown
17:04 69.8 °F 62.6 °F 29.8 in SE 5.6 mph 8.1 mph 80% 0.02 in 178.00 W/m2 unknown
17:09 69.8 °F 62.6 °F 29.8 in SE 5.6 mph 8.1 mph 78% 0.02 in 102.00 W/m2 unknown
17:14 69.8 °F 62.6 °F 29.8 in SE 5 mph 8.1 mph 78% 0.02 in 171.00 W/m2 unknown
17:19 69.8 °F 62.6 °F 29.8 in SE 4.3 mph 6.8 mph 78% 0.02 in 258.00 W/m2 unknown
17:24 69.8 °F 62.6 °F 29.8 in SE 3.7 mph 5.6 mph 77% 0.02 in 615.00 W/m2 unknown
17:29 69.8 °F 62.6 °F 29.8 in SSE 5 mph 8.7 mph 76% 0.01 in 274.00 W/m2 unknown
17:34 69.8 °F 60.8 °F 29.8 in SSE 5 mph 8.7 mph 73% 0.02 in 167.00 W/m2 unknown
17:39 69.8 °F 62.6 °F 29.8 in South 5 mph 8.1 mph 75% 0.02 in 350.00 W/m2 unknown
17:44 69.8 °F 60.8 °F 29.8 in SSW 5.6 mph 8.1 mph 73% 0.02 in 302.00 W/m2 unknown
17:49 71.6 °F 60.8 °F 29.8 in South 6.2 mph 8.1 mph 72% 0.02 in 621.00 W/m2 unknown
17:54 71.6 °F 62.6 °F 29.8 in SSW 6.2 mph 6.8 mph 72% 0.02 in 621.00 W/m2 unknown
17:59 71.6 °F 60.8 °F 29.8 in SSW 5 mph 6.8 mph 69% 0.02 in 359.00 W/m2 unknown
18:04 71.6 °F 60.8 °F 29.8 in SSW 3.1 mph 6.8 mph 70% 0.01 in 264.00 W/m2 unknown
18:09 71.6 °F 60.8 °F 29.8 in South 2.5 mph 6.2 mph 70% 0.01 in 308.00 W/m2 unknown
18:14 71.6 °F 60.8 °F 29.8 in SE 3.1 mph 5.6 mph 68% 0.01 in 243.00 W/m2 unknown
18:19 71.6 °F 60.8 °F 29.8 in South 3.1 mph 6.2 mph 67% 0.01 in 394.00 W/m2 unknown
18:24 71.6 °F 60.8 °F 29.8 in South 3.7 mph 6.2 mph 69% 0.02 in 294.00 W/m2 unknown
18:29 71.6 °F 60.8 °F 29.8 in SSE 3.7 mph 8.1 mph 69% 0.02 in 220.00 W/m2 unknown
18:34 71.6 °F 60.8 °F 29.8 in South 4.3 mph 8.1 mph 67% 0.02 in 192.00 W/m2 unknown
18:39 71.6 °F 60.8 °F 29.8 in SSW 5.6 mph 8.1 mph 67% 0.02 in 213.00 W/m2 unknown
18:44 73.4 °F 60.8 °F 29.8 in South 5 mph 8.1 mph 67% 0.02 in 399.00 W/m2 unknown
18:49 73.4 °F 62.6 °F 29.8 in SSW 3.1 mph 6.8 mph 68% 0.02 in 399.00 W/m2 unknown
18:54 73.4 °F 60.8 °F 29.8 in SSW 4.3 mph 6.8 mph 66% 0.01 in 338.00 W/m2 unknown
18:59 73.4 °F 60.8 °F 29.8 in South 5.6 mph 10.6 mph 64% 0.01 in 171.00 W/m2 unknown
19:04 73.4 °F 60.8 °F 29.8 in SSE 3.1 mph 10.6 mph 66% 0.01 in 156.00 W/m2 unknown
19:09 73.4 °F 60.8 °F 29.8 in SSE 1.9 mph 3.7 mph 67% 0.01 in 232.00 W/m2 unknown
19:13 73.4 °F 60.8 °F 29.8 in SSE 1.9 mph 3.7 mph 66% 0.01 in 195.00 W/m2 unknown
19:18 71.6 °F 60.8 °F 29.8 in South 2.5 mph 3.7 mph 67% 0.02 in 232.00 W/m2 unknown
19:24 71.6 °F 60.8 °F 29.8 in South 3.1 mph 5 mph 68% 0.02 in 51.00 W/m2 unknown
19:29 71.6 °F 60.8 °F 29.8 in SSW 3.7 mph 5 mph 69% 0.02 in 54.00 W/m2 unknown
19:34 71.6 °F 60.8 °F 29.8 in SSW 3.1 mph 5 mph 70% 0.02 in 107.00 W/m2 unknown
19:39 71.6 °F 62.6 °F 29.8 in SW 3.1 mph 5 mph 72% 0.02 in 107.00 W/m2 unknown
19:44 71.6 °F 62.6 °F 29.8 in SW 2.5 mph 5 mph 72% 0.02 in 169.00 W/m2 unknown
19:49 71.6 °F 62.6 °F 29.8 in SSW 3.1 mph 3.7 mph 72% 0.01 in 165.00 W/m2 unknown
19:54 71.6 °F 62.6 °F 29.8 in SW 3.1 mph 3.7 mph 72% 0.01 in 141.00 W/m2 unknown
19:59 71.6 °F 62.6 °F 29.8 in SW 3.1 mph 5 mph 71% 0.01 in 135.00 W/m2 unknown
20:04 71.6 °F 62.6 °F 29.8 in SW 3.1 mph 5 mph 71% 0.01 in 118.00 W/m2 unknown
20:09 71.6 °F 60.8 °F 29.8 in SW 3.1 mph 5 mph 70% 0.01 in 102.00 W/m2 unknown
20:14 71.6 °F 60.8 °F 29.8 in SW 3.1 mph 5 mph 70% 0.01 in 62.00 W/m2 unknown
20:19 71.6 °F 60.8 °F 29.8 in SW 3.7 mph 5 mph 70% 0.01 in 60.00 W/m2 unknown
20:24 71.6 °F 60.8 °F 29.8 in SW 3.1 mph 5 mph 69% 0.01 in 58.00 W/m2 unknown
20:29 71.6 °F 60.8 °F 29.8 in SW 3.1 mph 3.7 mph 69% 0.01 in 54.00 W/m2 unknown
20:34 71.6 °F 60.8 °F 29.8 in SW 3.1 mph 3.7 mph 69% 0.02 in 40.00 W/m2 unknown
20:39 71.6 °F 60.8 °F 29.8 in SW 3.1 mph 3.7 mph 69% 0.01 in 33.00 W/m2 unknown
20:44 71.6 °F 60.8 °F 29.8 in SW 3.7 mph 6.2 mph 70% 0.01 in 23.00 W/m2 unknown
20:49 71.6 °F 60.8 °F 29.8 in SW 3.7 mph 6.2 mph 70% 0.01 in 19.00 W/m2 unknown
20:54 71.6 °F 60.8 °F 29.8 in SW 1.9 mph 6.2 mph 72% 0.01 in 16.00 W/m2 unknown
20:59 69.8 °F 60.8 °F 29.8 in SW 2.5 mph 3.7 mph 72% 0.01 in 11.00 W/m2 unknown
21:04 69.8 °F 60.8 °F 29.8 in WSW 3.7 mph 6.2 mph 71% 0.01 in 7.00 W/m2 unknown
21:09 69.8 °F 60.8 °F 29.8 in WSW 4.3 mph 6.2 mph 72% 0.01 in 0.00 W/m2 unknown
21:14 69.8 °F 60.8 °F 29.8 in WSW 3.7 mph 6.2 mph 73% 0.01 in 0.00 W/m2 unknown
21:18 69.8 °F 60.8 °F 29.8 in WSW 3.1 mph 3.7 mph 74% 0.01 in 0.00 W/m2 unknown
21:24 68 °F 60.8 °F 29.8 in West 2.5 mph 3.7 mph 75% 0.01 in 0.00 W/m2 unknown
21:29 68 °F 60.8 °F 29.8 in WNW 1.9 mph 3.7 mph 76% 0.01 in 0.00 W/m2 unknown
21:34 68 °F 60.8 °F 29.8 in West 2.5 mph 3.7 mph 76% 0.01 in 0.00 W/m2 unknown
21:39 68 °F 60.8 °F 29.8 in WNW 2.5 mph 3.7 mph 76% 0.01 in 0.00 W/m2 unknown
21:44 68 °F 60.8 °F 29.8 in WNW 3.7 mph 5 mph 76% 0.01 in 0.00 W/m2 unknown
21:49 68 °F 60.8 °F 29.8 in West 3.7 mph 5 mph 77% 0.01 in 0.00 W/m2 unknown
21:54 68 °F 60.8 °F 29.8 in WNW 3.1 mph 5 mph 78% 0 in 0.00 W/m2 unknown
21:59 68 °F 60.8 °F 29.8 in WNW 3.7 mph 6.2 mph 78% 0 in 0.00 W/m2 unknown
22:04 66.2 °F 59 °F 29.8 in WNW 4.3 mph 6.2 mph 78% 0.01 in 0.00 W/m2 unknown
22:09 66.2 °F 59 °F 29.8 in West 5 mph 6.2 mph 78% 0.01 in 0.00 W/m2 unknown
22:14 66.2 °F 59 °F 29.8 in WNW 3.1 mph 3.7 mph 79% 0.01 in 0.00 W/m2 unknown
22:19 66.2 °F 59 °F 29.8 in WNW 2.5 mph 3.7 mph 79% 0.01 in 0.00 W/m2 unknown
22:24 66.2 °F 59 °F 29.8 in WNW 3.1 mph 3.7 mph 78% 0.01 in 0.00 W/m2 unknown
22:29 66.2 °F 59 °F 29.8 in WNW 3.1 mph 3.7 mph 78% 0.02 in 0.00 W/m2 unknown
22:34 66.2 °F 59 °F 29.8 in WNW 3.1 mph 3.7 mph 79% 0.02 in 0.00 W/m2 unknown
22:39 66.2 °F 59 °F 29.8 in WNW 3.7 mph 5 mph 79% 0.02 in 0.00 W/m2 unknown
22:44 66.2 °F 59 °F 29.8 in WNW 3.7 mph 5 mph 79% 0.02 in 0.00 W/m2 unknown
22:49 64.4 °F 59 °F 29.8 in NW 3.7 mph 5 mph 80% 0.02 in 0.00 W/m2 unknown
22:54 64.4 °F 59 °F 29.8 in WNW 4.3 mph 5 mph 80% 0.02 in 0.00 W/m2 unknown
22:59 64.4 °F 59 °F 29.8 in NW 4.3 mph 5 mph 79% 0.02 in 0.00 W/m2 unknown
23:04 64.4 °F 59 °F 29.8 in NW 3.1 mph 5 mph 79% 0.02 in 0.00 W/m2 unknown
23:09 64.4 °F 59 °F 29.8 in NW 3.7 mph 6.2 mph 79% 0.02 in 0.00 W/m2 unknown
23:14 64.4 °F 59 °F 29.9 in NW 3.7 mph 6.2 mph 78% 0.02 in 0.00 W/m2 unknown
23:19 64.4 °F 59 °F 29.9 in NW 4.3 mph 8.1 mph 78% 0.02 in 0.00 W/m2 unknown
23:24 64.4 °F 59 °F 29.9 in NW 4.3 mph 8.1 mph 79% 0.02 in 0.00 W/m2 unknown
23:29 64.4 °F 59 °F 29.9 in NW 3.1 mph 8.1 mph 79% 0.02 in 0.00 W/m2 unknown
23:34 64.4 °F 59 °F 29.9 in NW 2.5 mph 3.7 mph 79% 0.02 in 0.00 W/m2 unknown
23:39 66.2 °F 59 °F 29.9 in NW 2.5 mph 3.7 mph 79% 0.02 in 0.00 W/m2 unknown
23:44 66.2 °F 59 °F 29.9 in NW 3.1 mph 3.7 mph 79% 0.02 in 0.00 W/m2 unknown
23:49 66.2 °F 59 °F 29.9 in NW 3.1 mph 3.7 mph 78% 0.02 in 0.00 W/m2 unknown
23:54 66.2 °F 59 °F 29.9 in NW 2.5 mph 5 mph 78% 0.02 in 0.00 W/m2 unknown
23:59 66.2 °F 59 °F 29.9 in NW 3.7 mph 6.2 mph 78% 0.02 in 0.00 W/m2 unknown
Stazione Meteorologica MeteoMincio Rivalta s/M (MN)
Con i complimenti di Weather Underground - 4 mb



GLOSSARIO METEOROLOGICO
Umidità Relativa
E' definita come il rapporto tra la pressione di vapore effettiva (e) e la pressione di vapore saturo (es), normalmente espresso in percento. E' la proprietà del vapore acqueo più frequentemente osservata, e può essere utilizzata per ricavare le altre variabili. Viene espressa in %. Questo rapporto viene chiamato anche stato igrometrico dell'aria. Valori inferiori al 30% denotano la presenza di aria secca o poco umida, mentre valori superiori al 70-80% sono indice di una notevole umidità (ad esempio in caso di pioggia o di nebbia).
Share

Non seguire questo link o sarai bannato dal sito!